Martin Braun

Chefscout - Mainz 05
3 Apr 2027
Samstag
Verarbeitung

Persönlichkeit

Anpassungsfähigkeit (5) Ehrgeiz (5) Kontroverse (4) Loyalität (17) Druck (1) Professionalität (15) Fairness (5) Temperament (11)

Profil

Trainerstil Demokratisch
Lizenz Kontinentale A
Entschlossenheit 11
Menschenführung 11
Motivation 9
Disziplin 10
Arbeitszufriedenheit
73%
Ermüdung
0%
Rolle Chefscout
Gehalt 74.7K p/W
Vertrag 14.03.2029

Leistung

Verhalten Gut
Trainingseffektivität
30%
Spielerentwicklung
40%
Verletzungsprävention
35%
Taktische Umsetzung
40%

Letzte Ereignisse

Spieler begutachtet jetzt
Nahm an einer Scouting-Besprechung teil jetzt
Empfahl ein Transferziel jetzt
Empfahl ein Transferziel jetzt
Empfahl ein Transferziel jetzt
Spieler begutachtet jetzt
Spieler begutachtet jetzt
Spieler begutachtet 7T her

Aktuell beobachtet

197
Spieler Verein Status Fähigkeit Vertrauen Beobachtet Zuletzt beobachtet Letzte Stimme
George Wickens Lincoln City Aktiv 116 / 114 40% 3 02.04.2027 -
Jamie Cumming Oxford United Aktiv 134 / 133 40% 1 02.04.2027 -
Ruslan Neshcheret Dynamo Kyiv Aktiv 117 / 126 40% 3 01.04.2027 -
Jordan Amissah Burton Albion Aktiv 110 / 101 40% 1 01.04.2027 -
Pascal Loretz Luzern Aktiv 140 / 129 40% 5 31.03.2027 -
Andreas Jungdal Westerlo Aktiv 121 / 120 40% 1 31.03.2027 -
Alfonso Pastor Maritimo Aktiv 114 / 115 40% 3 30.03.2027 -
Sławomir Abramowicz Jagiellonia Aktiv 112 / 126 40% 1 30.03.2027 -
Lorenzo Palmisani Frosinone Aktiv 139 / 141 40% 1 29.03.2027 -
Igor Nikić Mirandés Aktiv 116 / 123 40% 1 29.03.2027 -
Bernardo Fontes Braga Aktiv 119 / 128 40% 4 28.03.2027 -
Gonzalo Crettaz NEC Aktiv 135 / 139 40% 2 28.03.2027 -
Elijah Dijkstra Feyenoord Aktiv 113 / 134 40% 2 27.03.2027 -
Niklas Steffen Thun Aktiv 114 / 116 40% 4 27.03.2027 -
Stav Lemkin Twente Aktiv 127 / 122 40% 1 27.03.2027 -
Oleksandr Saputin Zorya Aktiv 99 / 133 40% 1 27.03.2027 -
Radek Vítek Middlesbrough Aktiv 129 / 141 40% 4 26.03.2027 -
Mio Backhaus SC Freiburg Aktiv 125 / 143 40% 1 26.03.2027 -
Cristian Shpendi Cesena Aktiv 141 / 142 40% 2 25.03.2027 -
Edoardo Corvi Parma Aktiv 138 / 129 40% 3 25.03.2027 -
Andrea Colpani Monza Aktiv 139 / 138 40% 1 25.03.2027 -
Guilherme Fernandes Córdoba Aktiv 126 / 137 40% 2 22.03.2027 -
Ben Voll St. Pauli Aktiv 125 / 116 40% 2 22.03.2027 -
João Valido Chaves Aktiv 121 / 120 40% 2 21.03.2027 -
Ilias Sebaoui Sint-Truiden Aktiv 118 / 135 40% 3 20.03.2027 -
Nacer Tielemans Mouscron Aktiv 135 / 135 40% 1 20.03.2027 -
Guillaume Restes Toulouse FC Aktiv 126 / 142 40% 1 20.03.2027 -
Gabriel Brazão Santos Aktiv 124 / 124 40% 1 20.03.2027 -
Fabian de Keijzer Heracles Aktiv 126 / 108 40% 2 19.03.2027 -
Grégoire Coudert Burnley Aktiv 139 / 129 40% 1 17.03.2027 -
Anthony Patterson Wrexham Aktiv 133 / 138 40% 1 17.03.2027 -
Beau Reus Waasland-Beveren Aktiv 138 / 136 40% 1 16.03.2027 -
Olívio Tomé Benfica Aktiv 112 / 104 40% 1 16.03.2027 -
Veljko Radosavljević Cukaricki Aktiv 108 / 98 40% 1 16.03.2027 -
Lucas Cañizares Tondela Aktiv 98 / 120 40% 1 15.03.2027 -
Berke Özer LOSC Lille Aktiv 133 / 138 40% 2 14.03.2027 -
Karl Hein Werder Bremen Aktiv 135 / 146 40% 3 13.03.2027 -
Michael Cooper Sheffield United Aktiv 133 / 126 40% 3 12.03.2027 -
Axel Alderweireld KV Oostende Aktiv 136 / 150 40% 1 11.03.2027 -
Luciano Gondou CSKA Moscow Aktiv 126 / 128 40% 5 10.03.2027 -
Bilal Bayazıt Kayserispor Aktiv 125 / 116 40% 1 10.03.2027 -
Jackson Muleka Konyaspor Aktiv 144 / 139 40% 1 10.03.2027 -
Brian Rodríguez Club America Aktiv 150 / 126 40% 1 08.03.2027 -
Sébastien Durand Tours Aktiv 128 / 140 40% 1 08.03.2027 -
Chiquinho Alverca Aktiv 136 / 124 40% 1 07.03.2027 -
Luca Koleosho Paris FC Aktiv 134 / 141 40% 1 07.03.2027 -
Egoitz Arana Real Sociedad Aktiv 97 / 115 40% 1 06.03.2027 -
Alan KAA Gent Aktiv 138 / 136 40% 3 05.03.2027 -
Louis Oppie St. Pauli Aktiv 130 / 119 40% 1 05.03.2027 -
Caspar Jander Southampton Aktiv 133 / 124 40% 1 05.03.2027 -
Luca Orellano Monterrey Aktiv 151 / 139 40% 1 05.03.2027 -
Lazar Carević Famalicao Aktiv 123 / 140 40% 2 02.03.2027 -
Festy Ebosele Basaksehir Aktiv 124 / 137 40% 2 01.03.2027 -
Mahamadou Doumbia Al-Ittihad Aktiv 126 / 130 40% 1 01.03.2027 -
Marcel Ruiz Toluca Aktiv 128 / 154 40% 2 25.02.2027 -
Thierry Rendall Correia Venezia Aktiv 135 / 145 40% 2 24.02.2027 -
Michy Fellaini KV Oostende Aktiv 145 / 139 40% 7 23.02.2027 -
Sem Westerveld Zaragoza Aktiv 124 / 119 40% 1 20.02.2027 -
Figueiredo Alverca Aktiv 132 / 118 40% 1 18.02.2027 -
Daniil Khudyakov Sturm Graz Aktiv 132 / 127 40% 1 16.02.2027 -
Carl Rushworth Coventry City Aktiv 127 / 128 40% 1 14.02.2027 -
Jakub Surovčík Sparta Prague Aktiv 128 / 112 40% 1 14.02.2027 -
Nazar Voloshyn Dynamo Kyiv Aktiv 122 / 133 40% 1 14.02.2027 -
Iñaki Peña Panathinaikos Aktiv 125 / 158 40% 1 10.02.2027 -
Jakub Stolarczyk Leicester City Aktiv 129 / 124 40% 2 08.02.2027 -
Aral Şimşir Trabzonspor Aktiv 143 / 117 40% 4 07.02.2027 -
Rome-Jayden Owusu-Oduro AZ Aktiv 144 / 127 40% 2 07.02.2027 -
Luciano Juba Bahia Aktiv 125 / 129 40% 2 06.02.2027 -
Elia Caprile Cagliari Aktiv 146 / 135 40% 1 04.02.2027 -
Heorhii Yermakov Metalist Aktiv 127 / 116 40% 1 02.02.2027 -
Leo Kokubo Sint-Truiden Aktiv 109 / 119 40% 1 02.02.2027 -
Gonzalo Plata Dinamo Moscow Aktiv 123 / 144 40% 3 26.01.2027 -
Duk Atlas Verloren 113 / 102 40% 2 26.01.2027 -
Chema Andrés VfB Stuttgart Aktiv 138 / 152 51% 1 18.01.2027 -
Maurits Kjærgaard Red Bull Salzburg Verloren 142 / 134 40% 10 01.01.2027 -
Roberto Alvarado Guadalajara Aktiv 139 / 139 66% 1 01.01.2027 Befürworten
Marvin Keller Young Boys Verloren 136 / 137 67% 1 01.01.2027 Befürworten
Paulinho Palmeiras Aktiv 140 / 140 66% 1 01.01.2027 Befürworten
Federico Pereira Toluca Verloren 135 / 135 68% 1 01.01.2027 -
Vitor Roque Palmeiras Aktiv 140 / 145 68% 1 01.01.2027 Befürworten
Richard Koné Queens Park Rangers Aktiv 119 / 129 40% 6 31.12.2026 -
Chupete Málaga Aktiv 130 / 123 40% 5 31.12.2026 -
Matheuzinho Corinthians Aktiv 137 / 128 40% 1 30.12.2026 -
Peter Itodo Metalist Verloren 94 / 123 40% 2 29.12.2026 -
Orri Óskarsson Real Sociedad Aktiv 129 / 126 40% 1 29.12.2026 -
Dženan Pejčinović VfB Stuttgart Aktiv 115 / 129 40% 2 27.12.2026 -
Ansu Fati Monaco Aktiv 140 / 130 40% 1 27.12.2026 -
Jones El-Abdellaoui Celta Verloren 138 / 131 40% 2 25.12.2026 -
Tyreece Campbell Charlton Athletic Aktiv 111 / 128 40% 4 25.12.2026 -
García Pascual Cádiz Aktiv 111 / 122 40% 1 25.12.2026 -
Juan Bisanz Huracán Aktiv 141 / 122 40% 1 23.12.2026 -
Derry Scherhant SC Freiburg Aktiv 121 / 120 40% 4 21.12.2026 -
Enis Destan Konyaspor Aktiv 137 / 111 40% 2 21.12.2026 -
Myron van Brederode KV Mechelen Aktiv 118 / 119 40% 3 19.12.2026 -
Manfred Ugalde Spartak Moscow Aktiv 130 / 119 40% 4 18.12.2026 -
Ilyas Chouaref Sion Aktiv 112 / 110 40% 3 15.12.2026 -
Ousmane Camara Castellón Aktiv 121 / 113 40% 5 15.12.2026 -
Bryan González Guadalajara Aktiv 120 / 137 40% 2 15.12.2026 -
Fiete Arp OB Aktiv 148 / 115 40% 1 15.12.2026 -
Abu Kamara Portsmouth Aktiv 117 / 115 40% 4 12.12.2026 -
Josh Coburn Millwall Aktiv 122 / 116 40% 1 11.12.2026 -
Karlo Špeljak Lucko Aktiv 114 / 117 40% 1 10.12.2026 -
Tadeo Allende Inter Miami CF Aktiv 136 / 126 40% 1 09.12.2026 -
Matija Frigan Parma Aktiv 122 / 133 40% 1 09.12.2026 -
Andri Guðjohnsen Blackburn Rovers Aktiv 111 / 120 40% 4 07.12.2026 -
Carlos Martín Atlético Madrid Aktiv 118 / 128 40% 2 05.12.2026 -
Fernand Gouré Westerlo Aktiv 103 / 114 40% 1 04.12.2026 -
Felipe Augusto Zenit Aktiv 127 / 144 40% 5 29.11.2026 -
Tobias Bech AGF Aktiv 120 / 113 40% 3 29.11.2026 -
Rocco Vata Watford Aktiv 112 / 119 40% 4 27.11.2026 -
Marlon Gomes Shakhtar Aktiv 131 / 137 40% 1 27.11.2026 -
Robert FC Copenhagen Aktiv 129 / 116 40% 2 26.11.2026 -
Kevin Kelsy Portland Timbers Aktiv 105 / 116 40% 1 22.11.2026 -
Exequiel Zeballos Boca Juniors Aktiv 122 / 132 40% 1 20.11.2026 -
Matteo di Giusto Luzern Aktiv 122 / 129 40% 1 20.11.2026 -
Matyáš Vojta Sparta Prague Aktiv 107 / 115 40% 3 18.11.2026 -
César Huerta Pumas UNAM Aktiv 135 / 128 40% 1 18.11.2026 -
Tomáš Rigo Stoke City Aktiv 123 / 121 40% 1 18.11.2026 -
Matheus Nascimento Le Havre AC Aktiv 122 / 129 40% 3 15.11.2026 -
Yoshan Valois Lanús Aktiv 108 / 125 40% 2 15.11.2026 -
Alvyn Sanches Young Boys Aktiv 125 / 138 40% 1 13.11.2026 -
Helinho Toluca Aktiv 113 / 138 40% 1 13.11.2026 -
Louis Munteanu DC United Aktiv 130 / 136 40% 2 11.11.2026 -
Erik Lira Cruz Azul Aktiv 127 / 131 40% 2 10.11.2026 -
Adam Randell Bristol City Aktiv 132 / 121 40% 1 10.11.2026 -
Chuki Werder Bremen Aktiv 121 / 129 40% 1 07.11.2026 -
Thomas Kastanaras FC Augsburg Aktiv 104 / 121 40% 1 07.11.2026 -
Eguinaldo Shakhtar Aktiv 139 / 129 40% 1 06.11.2026 -
Mohamed Bamba FC Lorient Aktiv 118 / 132 40% 1 05.11.2026 -
Henry Mosquera Bragantino Aktiv 116 / 132 40% 1 05.11.2026 -
Haissem Hassan Bloemfontein Celtic Aktiv 132 / 120 40% 1 05.11.2026 -
Fabian Rieder FC Augsburg Aktiv 125 / 146 40% 1 04.11.2026 -
Petter Nosa Dahl Rapid Wien Aktiv 120 / 118 40% 3 30.10.2026 -
Diego Aznar Huesca Aktiv 116 / 100 40% 1 29.10.2026 -
Vladyslav Vanat Girona Aktiv 121 / 143 40% 1 28.10.2026 -
Cesar Corona Veracruz Aktiv 134 / 145 40% 1 28.10.2026 -
Marezi Portsmouth Aktiv 127 / 129 40% 1 25.10.2026 -
Uchenna Ogundu FC Augsburg Aktiv 111 / 136 40% 1 23.10.2026 -
Rafiu Durosinmi Racing Genk Aktiv 128 / 132 40% 3 22.10.2026 -
Iván Martín Racing Club Aktiv 132 / 145 40% 4 18.10.2026 -
Lucio Castillo Colegiales Aktiv 105 / 112 40% 3 18.10.2026 -
Job Ochieng Real Sociedad Aktiv 108 / 101 40% 1 18.10.2026 -
Diego Lainez Tigres Aktiv 123 / 123 40% 1 18.10.2026 -
Kaio Jorge Cruzeiro Aktiv 144 / 141 40% 2 13.10.2026 -
Lucas Sanabria LA Galaxy Aktiv 118 / 115 40% 1 13.10.2026 -
Isma Ruiz Córdoba Aktiv 127 / 130 40% 1 12.10.2026 -
Aidan Morris Middlesbrough Aktiv 136 / 127 40% 1 12.10.2026 -
José Paradela Cruz Azul Aktiv 129 / 140 40% 1 11.10.2026 -
Adriano Bertaccini Anderlecht Aktiv 126 / 117 40% 1 11.10.2026 -
Marquinhos Spartak Moscow Aktiv 114 / 124 40% 1 08.10.2026 -
Jhon Jhon Zenit Aktiv 112 / 133 40% 1 07.10.2026 -
Ibrahim Aliyu Houston Dynamo Aktiv 110 / 127 40% 2 03.10.2026 -
Andrin Hunziker St. Gallen Aktiv 109 / 121 40% 4 01.10.2026 -
Alan Velasco Boca Juniors Aktiv 125 / 139 40% 3 30.09.2026 -
Agustín Venezia Iquique Aktiv 110 / 120 40% 2 29.09.2026 -
Gustavo Puerta Racing Santander Aktiv 137 / 147 40% 1 28.09.2026 -
Keke Topp Werder Bremen Aktiv 105 / 120 40% 1 22.09.2026 -
Vitinho Botafogo Aktiv 143 / 140 40% 1 22.09.2026 -
Sam Greenwood Bristol City Aktiv 115 / 128 40% 1 17.09.2026 -
Jorge Pascual Granada Aktiv 143 / 143 40% 1 16.09.2026 -
Tom Krauß Köln Aktiv 132 / 133 40% 1 15.09.2026 -
Yarek Gąsiorowski PSV Aktiv 131 / 140 40% 1 15.09.2026 -
Jens Petter Hauge Bodo/Glimt Aktiv 153 / 133 40% 1 12.09.2026 -
Chihiro Konagaya Albirex Niigata Aktiv 125 / 123 40% 1 11.09.2026 -
Talles Magno New York City Aktiv 117 / 124 40% 2 10.09.2026 -
Lorenzo Amatucci Deportivo La Coruña Aktiv 136 / 125 40% 1 10.09.2026 -
Jeong Sang-Bin St. Louis CITY SC Aktiv 126 / 106 40% 1 07.09.2026 -
Jay Stansfield Birmingham Aktiv 115 / 130 40% 1 05.09.2026 -
Ezequiel Almirón Estudiantes Aktiv 119 / 106 40% 1 03.09.2026 -
Lucas Richarte Temperley Aktiv 101 / 113 40% 1 01.09.2026 -
Livan Burcu Union Berlin Aktiv 109 / 119 40% 1 31.08.2026 -
Cyriaque Irié SC Freiburg Aktiv 127 / 121 40% 1 31.08.2026 -
Alejandro Piedrahita Deportivo Pereira Aktiv 134 / 123 40% 1 26.08.2026 -
Nicolò Tresoldi Club Brugge Aktiv 130 / 130 40% 1 25.08.2026 -
Cemran Dansin Orlando Pirates Aktiv 126 / 111 40% 1 25.08.2026 -
Ignacio Perruzzi San Lorenzo Aktiv 125 / 135 40% 1 25.08.2026 -
Oscar Højlund Eintracht Frankfurt Aktiv 120 / 130 40% 1 23.08.2026 -
Sergio Quintero La Equidad Aktiv 136 / 144 40% 1 23.08.2026 -
Ezechiel Banzuzi RB Leipzig Aktiv 114 / 134 40% 2 22.08.2026 -
Caleb Yirenkyi Coventry City Aktiv 135 / 130 40% 1 22.08.2026 -
Mihailo Ivanović Millwall Aktiv 111 / 139 40% 1 21.08.2026 -
Lucas Agazzi Defensor Sporting Aktiv 122 / 133 40% 1 21.08.2026 -
Ezekiel Kwame Alladoh Philadelphia Union Aktiv 128 / 109 40% 1 19.08.2026 -
Ibrahim Salah Basel Aktiv 122 / 112 40% 1 19.08.2026 -
Chris Rigg Sunderland Aktiv 126 / 137 40% 1 19.08.2026 -
Dejan Radonjić SV Ried Aktiv 107 / 112 40% 2 18.08.2026 -
Saël Kumbedi VfL Wolfsburg Aktiv 118 / 138 40% 1 18.08.2026 -
Santiago Fernández Talleres Aktiv 107 / 118 40% 1 17.08.2026 -
Stefan Schimmer Heidenheim Aktiv 110 / 113 51% 1 10.08.2026 -
Bruno Ogbus SC Freiburg Aktiv 106 / 135 40% 1 10.08.2026 -
Brighton Labeau Thun Aktiv 125 / 114 40% 1 06.08.2026 -
Lars Villiger Luzern Aktiv 112 / 123 40% 1 06.08.2026 -
Iñaki Williams Athletic Bilbao Aktiv 143 / 160 40% 1 04.08.2026 -
Carles Gil New England Revolution Aktiv 131 / 126 40% 1 04.08.2026 -
Sota Kitano Red Bull Salzburg Aktiv 131 / 125 40% 1 03.08.2026 -
Karim Konaté Red Bull Salzburg Aktiv 130 / 143 40% 1 03.08.2026 -
Mark Flekken Bayer Leverkusen Aktiv 145 / 144 40% 1 02.08.2026 -